Wind_Speed
16 17 18 18 18 17 16 15 14 13 13 12 13 12 10 9 8 8 8 7 7 8 8 7 7 8 8 8 9 9 9 8 8 8 7 8 8 10 11 12 14 15 15
18 19 19 20 20 20 19 19 19 17 16 16 16 15 14 12 11 10 10 10 10 10 9 9 9 9 9 10 11 11 12 12 12 12 12 11 12 12 12 13 14 16 18
20 21 21 22 22 22 22 22 22 21 20 20 19 19 17 16 14 13 12 12 12 12 12 12 11 10 10 11 11 13 14 15 15 16 16 16 16 16 15 16 16 17 18
23 24 24 25 25 25 25 25 25 24 23 22 22 21 20 19 18 17 15 14 14 14 14 14 13 12 12 12 12 14 15 16 17 18 19 19 20 20 20 19 19 19 20
26 27 28 28 28 28 28 28 27 26 25 23 23 22 21 20 20 19 19 17 16 16 16 16 15 14 13 13 13 14 15 17 18 19 20 21 22 22 23 23 23 22 22
29 30 30 31 31 31 30 30 30 29 28 26 24 23 22 22 22 22 22 21 19 18 18 17 16 16 15 14 14 15 16 18 19 20 20 21 21 23 24 25 26 26 25
32 33 33 33 33 34 33 32 31 31 30 29 27 26 25 24 25 25 25 24 22 20 19 19 18 17 17 16 16 17 17 18 19 20 20 21 21 22 23 25 27 28 28
35 35 35 36 35 35 35 34 33 32 32 31 29 28 28 27 26 26 26 26 25 23 21 20 19 19 19 18 18 18 19 20 20 20 21 21 21 21 22 24 26 27 28
39 38 36 35 35 34 34 34 35 34 32 32 32 31 30 30 29 26 26 26 26 24 23 22 21 21 21 20 20 20 20 21 21 21 21 21 21 21 22 23 25 26 27
42 40 39 37 36 34 32 33 33 33 34 33 33 33 32 31 29 27 27 26 27 26 25 24 23 23 22 22 22 21 22 22 22 22 22 22 21 21 21 22 23 25 26
42 41 39 37 34 32 29 29 29 29 30 33 34 34 33 33 31 30 29 28 28 28 27 27 26 25 25 24 23 23 23 23 23 23 23 22 22 22 22 22 23 24 25
39 38 35 33 31 28 27 27 27 27 28 31 32 33 33 32 32 31 30 29 29 29 29 29 29 28 27 26 25 24 24 24 24 24 24 23 23 22 23 23 23 24 25
34 33 32 31 30 30 29 29 28 28 29 31 31 32 33 33 31 31 31 30 29 29 30 31 31 31 30 29 28 26 25 24 25 25 24 24 24 24 24 24 24 25 25
32 32 31 31 32 32 32 32 30 30 31 32 32 32 32 32 32 32 31 31 29 29 30 32 33 32 31 31 30 28 26 26 25 25 25 25 25 25 25 25 25 25 25
32 33 34 35 36 36 36 35 33 32 32 32 32 32 32 32 33 32 30 30 31 30 31 32 32 33 33 32 31 29 28 27 26 26 26 25 25 25 25 25 25 25 26
33 34 36 37 38 37 37 36 35 34 33 33 33 34 34 34 33 32 32 32 32 32 32 32 32 32 32 32 31 30 28 27 26 26 26 26 25 25 26 25 25 26 26
30 31 32 33 34 34 34 34 34 33 33 33 34 35 34 34 34 33 33 33 33 32 32 32 31 30 30 31 30 29 28 26 26 26 26 26 25 25 25 25 25 25 26
19 21 23 24 25 26 27 28 29 30 31 32 32 34 34 33 33 33 33 33 33 33 33 32 31 29 29 28 28 27 27 26 26 25 25 25 25 25 25 25 25 25 25
10 12 13 15 17 18 20 21 23 24 25 27 30 31 32 32 32 32 33 33 33 32 32 31 29 28 26 26 25 25 25 25 25 25 25 25 24 24 24 24 25 25 25
6 7 9 10 11 13 14 16 17 18 20 23 25 27 28 30 30 30 30 29 29 29 28 27 26 24 24 23 23 24 24 24 25 24 24 24 24 24 24 24 24 24 24
8 8 9 10 11 13 14 15 15 16 17 18 19 20 21 22 22 23 24 24 24 24 24 23 22 21 21 21 22 22 23 23 23 23 23 22 22 22 23 23 24 24 25
11 11 12 13 14 14 15 16 16 16 16 16 16 15 16 16 16 16 17 18 18 19 19 18 18 19 19 19 20 21 21 22 22 22 22 21 20 20 20 21 22 23 24
12 12 12 12 13 13 14 16 17 17 18 17 16 15 14 14 13 13 13 13 14 14 15 15 16 16 17 18 19 20 20 21 20 20 19 19 18 18 18 19 20 21 22
14 13 13 13 13 13 13 13 14 16 17 18 18 17 17 16 15 15 13 12 13 13 13 13 14 15 16 16 17 18 19 19 19 19 19 18 17 17 17 17 17 18 19
17 16 16 15 14 13 12 12 12 12 14 17 18 18 18 18 18 17 17 16 15 13 13 13 14 15 15 15 16 17 17 18 18 18 17 17 16 16 16 16 17 18 19
20 20 19 18 16 15 13 11 10 10 12 14 16 17 18 19 19 19 18 16 15 14 13 12 12 12 13 13 14 14 15 15 15 15 14 13 13 14 15 15 17 18 20
Wind_Direction
275 275 275 274 273 272 271 272 273 275 277 278 276 274 275 282 284 285 286 288 292 293 289 285 283 281 284 289 291 291 289 286 282 279 276 273 269 260 254 249 246 245 243
273 275 275 275 274 273 271 269 269 271 274 277 277 275 273 273 274 277 282 284 287 292 292 287 283 280 280 284 288 289 288 285 280 276 272 270 269 270 264 258 254 253 250
268 271 273 274 274 274 273 271 270 270 271 273 274 274 272 270 267 270 276 281 285 287 290 290 285 281 281 283 286 287 286 283 280 278 274 271 269 269 270 266 259 256 256
266 268 270 272 273 274 274 273 272 271 271 271 272 272 271 269 268 268 271 276 281 282 283 286 284 279 280 283 286 287 286 283 281 279 277 274 271 268 268 268 266 260 257
265 267 268 269 270 271 271 271 271 271 271 270 271 271 271 270 269 268 269 271 274 276 277 279 279 276 278 282 285 287 286 284 283 282 279 275 272 269 267 266 266 264 261
263 266 269 270 270 270 270 270 270 270 270 268 268 269 270 270 269 268 267 266 266 269 271 272 274 274 277 282 284 287 287 285 284 283 281 277 274 270 268 265 264 263 263
263 265 267 269 271 270 270 269 268 267 266 266 265 266 266 266 267 267 266 263 260 263 265 266 269 271 274 280 283 286 287 285 284 284 282 280 277 273 270 267 264 263 263
263 265 267 267 269 269 268 266 264 263 263 263 263 264 264 263 264 265 266 263 260 259 259 261 264 267 271 277 282 285 287 285 284 283 282 281 279 276 273 270 266 264 263
260 262 265 266 267 268 266 264 261 257 259 259 261 262 262 262 264 265 264 262 260 257 256 257 260 264 268 273 279 284 286 285 283 282 281 280 279 278 276 273 269 266 264
258 261 263 266 266 270 267 264 261 257 255 255 257 259 259 261 262 262 262 260 259 256 254 255 257 260 265 270 276 281 284 283 281 280 279 278 278 278 277 275 271 267 264
259 261 262 265 266 270 272 267 263 261 259 255 253 254 255 256 258 259 260 260 258 255 252 253 255 258 263 268 273 278 280 280 278 277 277 276 277 276 276 275 273 269 265
257 259 260 263 267 274 276 277 275 273 267 257 253 252 249 252 253 255 258 259 256 253 250 251 253 257 262 266 271 275 277 276 274 274 274 274 274 274 275 275 273 270 265
255 256 258 264 270 274 279 281 280 279 274 263 257 253 248 248 250 252 255 257 255 253 251 250 252 257 261 265 269 272 274 273 270 270 271 271 272 273 274 274 272 269 266
252 255 259 265 271 275 279 280 278 277 273 265 260 256 250 250 250 252 254 254 256 256 254 252 253 256 260 264 267 269 271 269 267 267 268 269 272 273 272 272 271 269 266
255 259 263 268 272 274 277 277 275 274 271 264 261 256 252 252 251 251 252 254 256 257 257 255 255 256 258 261 263 266 268 267 266 265 265 267 271 272 272 271 270 268 266
261 265 268 270 272 274 274 272 270 268 266 261 257 252 252 253 251 252 253 256 257 258 260 259 258 256 256 257 260 264 266 265 264 263 263 266 268 271 271 271 269 268 268
268 270 272 273 273 272 270 268 266 264 261 259 257 252 253 252 254 255 256 257 258 260 262 263 260 256 255 257 258 261 263 263 262 261 262 265 267 270 270 270 269 270 268
275 275 274 274 273 271 269 266 264 261 260 258 256 253 253 253 256 256 257 257 258 261 262 262 260 255 254 255 255 257 259 260 261 260 261 265 268 269 270 270 269 270 269
288 286 282 278 275 272 269 267 263 260 258 255 252 251 251 251 252 253 253 255 258 259 259 258 256 253 252 251 252 254 256 258 259 259 261 265 268 270 271 270 270 269 268
319 306 299 291 284 278 273 268 263 258 256 252 249 248 247 246 246 247 249 252 253 254 253 251 250 248 247 248 251 253 256 257 258 259 263 267 268 270 271 270 270 270 271
326 314 305 299 293 286 279 273 266 262 258 254 250 244 239 238 239 241 244 246 247 246 245 244 243 244 244 246 250 253 255 257 258 260 264 269 272 272 271 270 270 270 271
325 314 306 301 297 291 283 276 271 266 261 256 250 245 240 236 233 232 234 237 240 242 239 239 241 242 243 246 249 253 255 256 258 261 266 271 274 275 274 274 273 272 271
342 332 321 311 304 299 291 280 270 265 259 255 251 247 244 242 237 236 234 236 238 238 238 240 240 241 243 245 249 253 255 256 258 262 266 269 273 275 277 280 278 278 276
360 353 344 332 319 310 303 293 278 266 256 248 244 241 237 236 235 235 235 238 239 237 237 239 243 244 243 246 250 252 254 255 257 260 263 266 270 276 281 284 288 287 286
9 3 355 347 337 325 314 306 293 274 258 246 240 236 233 230 230 232 234 238 242 240 235 240 244 244 244 248 252 253 254 255 257 259 262 267 272 277 283 288 291 293 295
17 12 6 360 351 341 330 317 304 283 264 250 239 235 232 228 227 229 232 235 238 239 233 234 239 241 244 246 250 251 253 255 257 259 262 269 276 282 288 293 297 300 301
Height
5902 5903 5903 5903 5904 5904 5905 5906 5906 5907 5907 5907 5908 5909 5909 5910 5910 5910 5911 5911 5911 5910 5910 5910 5910 5909 5909 5909 5909 5909 5909 5909 5909 5909 5910 5910 5910 5910 5910 5910 5911 5911 5912
5898 5898 5899 5899 5899 5900 5900 5901 5902 5903 5903 5904 5904 5905 5905 5906 5907 5907 5908 5908 5908 5908 5908 5907 5907 5907 5906 5906 5906 5906 5906 5906 5907 5907 5907 5908 5908 5908 5908 5908 5908 5908 5909
5893 5893 5894 5894 5895 5895 5895 5896 5896 5898 5899 5899 5900 5900 5901 5902 5902 5903 5904 5904 5904 5904 5904 5904 5904 5904 5903 5903 5903 5903 5903 5903 5903 5904 5904 5905 5905 5906 5906 5905 5905 5905 5905
5888 5888 5888 5889 5889 5890 5890 5891 5891 5892 5893 5894 5895 5895 5896 5897 5898 5898 5899 5899 5900 5901 5901 5901 5900 5900 5900 5900 5899 5899 5899 5899 5899 5900 5900 5901 5902 5902 5902 5902 5902 5902 5902
5882 5882 5882 5883 5883 5884 5885 5885 5885 5886 5887 5888 5889 5889 5890 5891 5892 5893 5894 5894 5895 5896 5896 5896 5896 5896 5896 5896 5895 5895 5895 5895 5895 5895 5895 5896 5897 5897 5898 5898 5898 5898 5897
5876 5876 5876 5876 5877 5877 5878 5879 5879 5880 5881 5882 5883 5883 5884 5885 5886 5887 5888 5889 5890 5891 5891 5892 5892 5892 5892 5891 5891 5891 5891 5890 5890 5890 5890 5891 5891 5892 5892 5893 5893 5893 5893
5869 5869 5870 5870 5870 5870 5871 5872 5872 5873 5874 5875 5877 5878 5878 5879 5880 5881 5882 5883 5884 5885 5886 5886 5887 5887 5887 5887 5887 5886 5886 5886 5886 5885 5885 5885 5885 5886 5886 5887 5887 5887 5888
5861 5862 5862 5862 5863 5863 5863 5863 5864 5865 5866 5868 5870 5871 5872 5874 5874 5875 5876 5876 5877 5878 5880 5881 5881 5882 5882 5882 5882 5882 5881 5881 5881 5881 5880 5880 5880 5880 5880 5881 5881 5882 5882
5853 5854 5855 5855 5855 5855 5855 5855 5856 5857 5859 5860 5862 5864 5865 5866 5867 5869 5869 5870 5870 5872 5873 5874 5875 5876 5877 5877 5876 5876 5876 5876 5876 5876 5875 5875 5875 5875 5875 5875 5875 5876 5877
5845 5846 5847 5848 5848 5848 5848 5848 5849 5850 5851 5852 5854 5856 5857 5858 5859 5861 5862 5863 5864 5865 5866 5868 5869 5870 5871 5871 5871 5871 5871 5871 5871 5870 5870 5870 5870 5870 5870 5870 5870 5870 5871
5836 5838 5839 5840 5841 5840 5840 5840 5841 5842 5842 5844 5846 5847 5849 5850 5851 5853 5855 5856 5857 5858 5860 5861 5862 5863 5864 5865 5865 5865 5865 5865 5865 5865 5865 5864 5864 5864 5864 5864 5864 5865 5865
5828 5829 5830 5832 5833 5833 5833 5834 5834 5834 5834 5835 5837 5838 5840 5842 5844 5845 5847 5848 5850 5852 5853 5854 5855 5856 5857 5858 5859 5859 5860 5860 5860 5860 5859 5859 5859 5859 5859 5858 5858 5859 5859
5819 5821 5823 5824 5825 5826 5826 5826 5826 5826 5826 5827 5828 5830 5831 5833 5835 5837 5839 5840 5842 5844 5846 5847 5848 5849 5850 5851 5852 5853 5853 5854 5854 5854 5854 5854 5853 5853 5853 5853 5853 5853 5853
5811 5813 5815 5816 5817 5818 5818 5818 5818 5818 5818 5819 5820 5821 5822 5824 5827 5829 5830 5832 5834 5836 5838 5839 5841 5842 5843 5844 5845 5846 5847 5847 5848 5848 5848 5848 5847 5847 5847 5847 5847 5847 5847
5803 5805 5807 5808 5809 5809 5809 5809 5809 5810 5810 5810 5811 5812 5814 5815 5818 5820 5822 5824 5826 5828 5830 5831 5833 5835 5836 5837 5838 5839 5839 5841 5841 5842 5842 5842 5842 5841 5841 5841 5841 5841 5841
5795 5796 5797 5798 5798 5798 5799 5799 5799 5800 5800 5801 5802 5803 5805 5807 5809 5811 5813 5815 5817 5819 5821 5823 5825 5826 5828 5829 5830 5831 5832 5834 5835 5835 5836 5836 5836 5835 5835 5835 5835 5835 5835
5786 5787 5787 5787 5787 5787 5788 5788 5789 5790 5790 5792 5792 5794 5796 5798 5800 5802 5805 5807 5809 5811 5813 5814 5816 5818 5820 5821 5823 5824 5826 5827 5828 5829 5830 5830 5830 5830 5829 5829 5829 5829 5830
5778 5778 5778 5778 5778 5778 5778 5778 5779 5780 5781 5782 5783 5785 5787 5789 5791 5794 5796 5798 5800 5802 5804 5806 5808 5810 5812 5813 5815 5817 5819 5820 5822 5823 5824 5824 5824 5824 5824 5823 5823 5823 5823
5773 5772 5772 5771 5771 5770 5770 5770 5770 5771 5772 5773 5775 5777 5779 5781 5783 5785 5787 5790 5792 5794 5796 5798 5800 5802 5804 5806 5809 5811 5813 5814 5816 5817 5818 5818 5818 5818 5818 5817 5817 5817 5817
5769 5769 5768 5767 5766 5765 5764 5764 5764 5764 5765 5766 5767 5769 5771 5773 5775 5777 5779 5782 5784 5786 5788 5791 5793 5795 5798 5800 5802 5805 5807 5808 5810 5811 5812 5812 5812 5812 5812 5811 5811 5811 5811
5768 5766 5765 5763 5762 5761 5760 5759 5759 5759 5759 5760 5761 5762 5764 5766 5768 5770 5772 5775 5777 5780 5782 5784 5787 5789 5792 5794 5797 5799 5801 5803 5804 5805 5806 5806 5806 5806 5806 5806 5805 5805 5805
5766 5764 5762 5760 5758 5757 5755 5754 5754 5753 5754 5754 5755 5757 5758 5760 5762 5764 5767 5769 5772 5774 5777 5779 5782 5784 5787 5789 5792 5794 5796 5798 5799 5800 5801 5801 5801 5801 5800 5800 5799 5799 5798
5764 5761 5759 5756 5754 5752 5751 5749 5748 5748 5748 5749 5750 5752 5754 5756 5758 5760 5762 5764 5767 5769 5772 5775 5777 5780 5782 5785 5787 5789 5791 5793 5794 5795 5796 5796 5796 5796 5796 5795 5794 5794 5793
5762 5759 5756 5753 5751 5748 5746 5744 5742 5742 5742 5743 5745 5747 5749 5751 5754 5756 5758 5760 5763 5765 5768 5771 5774 5776 5778 5780 5783 5785 5786 5788 5789 5790 5791 5792 5792 5792 5792 5791 5790 5789 5788
5762 5758 5754 5751 5747 5744 5741 5739 5737 5736 5736 5737 5739 5741 5743 5746 5749 5751 5754 5757 5759 5762 5765 5767 5770 5772 5774 5777 5779 5781 5782 5783 5785 5786 5787 5788 5788 5788 5788 5788 5786 5785 5784
5762 5758 5753 5749 5744 5740 5737 5734 5732 5731 5731 5731 5733 5735 5738 5741 5744 5747 5750 5753 5756 5759 5762 5765 5767 5769 5771 5773 5775 5777 5778 5780 5781 5783 5784 5784 5785 5785 5785 5784 5783 5781 5779